Location: Katowice
(50.2611°N, 19.0242°E)
Time: 01:12:50
(UTC+02:00)

Vanguard 1 - Visible Passes

Search period start: 24 September 2020 00:00
Search period end: 04 October 2020 00:00
Orbit: 650 x 3832 km, 34.2° (Epoch: 23 September)

Date Brightness Start Highest point End Pass type
(mag) Time Alt. Az. Time Alt. Az. Time Alt. Az.
01 Oct 12.3 21:16:04 10° SSW 21:16:43 11° SSW 21:16:43 11° SSW visible
02 Oct 12.4 21:35:55 10° SSW 21:36:39 11° SSW 21:36:39 11° SSW visible
03 Oct 12.1 19:36:52 10° S 19:40:43 13° SSE 19:43:50 10° SE visible
03 Oct 12.5 21:56:10 10° SW 21:56:33 11° SW 21:56:33 11° SW visible
